Greenville, AL

11:44 AM CDT on May 25, 2018 (GMT -0500)
Greenville Municipal

Weather History for KPRN - February, 2012

Change the Weather History Date:

Saturday, February 25, 2012

  Actual Average Record
Temperature  
Mean Temperature 49 °F -  
Max Temperature 57 °F 65 °F 85 °F (1969)
Min Temperature 41 °F 39 °F 20 °F (1967)
Degree Days  
Heating Degree Days 16    
Moisture  
Dew Point 27 °F    
Average Humidity 49    
Maximum Humidity 86    
Minimum Humidity 20    
Precipitation  
Precipitation 0.00 in - - ()
Sea Level Pressure  
Sea Level Pressure 30.29 in    
Wind  
Wind Speed 5 mph (NNW)    
Max Wind Speed 12 mph    
Max Gust Speed 20 mph    
Visibility 10 miles    
Events      
Averages and records for this station are not official NWS values.
T = Trace of Precipitation, MM = Missing Value Source: NWS Daily Summary

Daily Weather History Graph

Daily Weather History Graph

Search for Another Location

Airport or City:

Astronomy

Feb. 25, 2012 Rise Set
Actual Time 6:18 AM CST 5:40 PM CST
Civil Twilight 5:54 AM CST 6:05 PM CST
Nautical Twilight 5:25 AM CST 6:33 PM CST
Astronomical Twilight 4:57 AM CST 7:02 PM CST
Moon 7:59 AM CST 9:21 PM CST
Length of Visible Light 12h 11m
Length of Day
11h 22m
Waxing Crescent, 14% of the Moon is Illuminated
Feb 25
Waxing Crescent
Feb 29
First Quarter
Mar 8
Full
Mar 14
Last Quarter
Mar 22
New

Hourly Weather History & Observations

Time (CST) Temp. Windchill Dew Point Humidity Pressure Visibility Wind Dir Wind Speed Gust Speed Precip Events Conditions
12:56 AM 48.0 °F - 26.1 °F 42% 30.26 in 10.0 mi NW 6.9 mph - N/A   Clear
1:56 AM 46.0 °F 43.1 °F 28.0 °F 50% 30.23 in 10.0 mi NNW 5.8 mph - N/A   Clear
2:56 AM 45.0 °F - 28.0 °F 52% 30.24 in 10.0 mi Calm Calm - N/A   Clear
3:56 AM 42.1 °F 40.2 °F 28.0 °F 58% 30.25 in 10.0 mi NW 3.5 mph - N/A   Clear
4:56 AM 42.1 °F 39.2 °F 28.9 °F 60% 30.27 in 10.0 mi NW 4.6 mph - N/A   Clear
5:56 AM 42.1 °F 39.2 °F 28.0 °F 58% 30.29 in 10.0 mi NW 4.6 mph - N/A   Clear
6:56 AM 41.0 °F 39.0 °F 30.9 °F 67% 30.31 in 10.0 mi NNW 3.5 mph - N/A   Clear
7:56 AM 44.1 °F 40.1 °F 28.9 °F 55% 30.34 in 10.0 mi NNW 6.9 mph - N/A   Clear
8:56 AM 46.9 °F - 27.0 °F 46% 30.35 in 10.0 mi NNW 9.2 mph - N/A   Clear
9:56 AM 51.1 °F - 21.9 °F 32% 30.35 in 10.0 mi North 11.5 mph 18.4 mph N/A   Clear
10:56 AM 53.1 °F - 16.0 °F 23% 30.34 in 10.0 mi North 11.5 mph 19.6 mph N/A   Clear
11:56 AM 55.0 °F - 17.1 °F 23% 30.31 in 10.0 mi NNW 8.1 mph - N/A   Clear
12:56 PM 55.9 °F - 16.0 °F 21% 30.27 in 10.0 mi NNW 11.5 mph - N/A   Clear
1:56 PM 55.9 °F - 15.1 °F 20% 30.26 in 10.0 mi NW 9.2 mph - N/A   Clear
2:56 PM 57.0 °F - 17.1 °F 21% 30.25 in 10.0 mi NNW 10.4 mph - N/A   Clear
3:56 PM 57.0 °F - 17.1 °F 21% 30.24 in 10.0 mi North 8.1 mph - N/A   Clear
4:56 PM 55.9 °F - 19.9 °F 25% 30.26 in 10.0 mi NW 4.6 mph - N/A   Clear
5:56 PM 52.0 °F - 26.1 °F 37% 30.28 in 10.0 mi Calm Calm - N/A   Clear
6:56 PM 46.9 °F - 35.1 °F 63% 30.28 in 10.0 mi Calm Calm - N/A   Clear
7:56 PM 45.0 °F - 35.1 °F 68% 30.30 in 10.0 mi Calm Calm - N/A   Clear
8:56 PM 44.1 °F - 36.0 °F 73% 30.31 in 10.0 mi Calm Calm - N/A   Clear
9:56 PM 43.0 °F 40.3 °F 37.0 °F 80% 30.30 in 10.0 mi North 4.6 mph - N/A   Clear
10:56 PM 42.1 °F - 37.9 °F 85% 30.31 in 10.0 mi Calm Calm - N/A   Clear
11:56 PM 43.0 °F - 39.0 °F 86% 30.29 in 10.0 mi Calm Calm - N/A   Clear